Date,TemperatureHighF,TemperatureAvgF,TemperatureLowF,DewpointHighF,DewpointAvgF,DewpointLowF,HumidityHigh,HumidityAvg,HumidityLow,PressureMaxIn,PressureMinIn,WindSpeedMaxMPH,WindSpeedAvgMPH,GustSpeedMaxMPH,PrecipitationSumIn
2013-1-1,45.5,43.5,41.5,42.6,38.8,34.9,91,84,77,29.99,29.43,17,7,17,0.00
2013-1-2,51.1,47.2,44.2,50.5,46.3,41.9,98,97,89,30.20,29.96,12,3,12,0.24
2013-1-3,52.3,51.0,49.1,51.8,50.0,47.7,98,97,93,30.50,30.20,15,4,15,0.00
2013-1-4,50.2,48.6,46.8,48.9,47.1,45.3,98,95,90,30.56,30.47,11,3,11,0.00
2013-1-5,49.6,47.3,45.1,48.6,46.1,44.4,98,96,89,30.50,30.38,8,1,8,0.00
2013-1-6,50.4,47.6,45.1,49.8,46.9,44.6,98,98,94,30.44,30.23,8,1,8,0.00
2013-1-7,49.6,47.0,43.9,48.4,46.3,43.3,98,98,93,30.23,30.08,6,2,7,0.00
2013-1-8,51.4,49.3,47.3,50.9,48.8,46.8,98,98,98,30.14,30.05,8,2,8,0.24
2013-1-9,41.7,39.5,35.2,41.2,38.9,34.7,98,98,97,30.18,30.03,4,0,4,0.04
2013-1-10,39.2,37.6,35.6,38.5,36.9,35.1,98,97,93,30.03,29.91,5,0,5,0.00
2013-1-11,40.6,38.0,35.8,40.1,37.4,35.2,98,98,98,30.03,29.88,13,3,13,0.00
2013-1-12,41.2,37.2,32.7,37.9,33.2,27.5,98,86,60,30.06,29.85,15,4,15,0.04
2013-1-13,36.9,33.9,31.1,34.9,32.6,29.7,98,95,89,30.15,30.00,8,1,8,0.00
2013-1-14,40.1,36.2,34.2,39.6,34.7,31.3,98,94,82,30.00,29.67,11,4,13,0.16
2013-1-15,36.7,33.5,29.7,32.7,30.0,27.3,95,87,76,29.85,29.73,8,1,8,0.16
2013-1-16,32.9,30.5,28.8,28.9,27.4,25.2,93,88,83,29.97,29.79,11,3,11,0.00
2013-1-17,35.2,32.6,30.2,33.1,29.8,27.3,98,89,79,29.97,29.76,23,5,23,0.00
2013-1-18,34.0,31.5,28.9,31.5,28.7,24.4,98,89,80,29.76,29.43,19,7,19,0.00
2013-1-19,34.5,32.4,28.8,32.7,28.4,25.3,98,85,75,29.58,29.43,9,3,13,0.00
2013-1-20,35.4,34.5,33.6,31.6,29.0,26.6,91,80,75,29.58,29.34,12,3,12,0.04
2013-1-21,35.1,33.5,32.4,34.3,32.7,30.7,98,97,92,29.40,29.28,6,1,6,0.00
2013-1-22,36.0,34.2,32.4,34.3,31.2,26.8,97,89,70,29.76,29.40,10,2,10,0.04
2013-1-23,35.8,34.2,32.5,34.0,30.7,27.3,94,87,81,29.85,27.88,8,2,8,0.08
2013-1-24,37.6,34.1,30.0,31.6,28.8,21.9,89,81,70,30.09,29.85,9,2,9,0.04
2013-1-25,35.4,31.8,27.7,33.1,28.9,21.9,98,89,72,30.03,29.40,17,6,17,0.00
2013-1-26,43.3,38.6,33.4,42.8,37.9,32.9,98,97,88,29.70,29.19,13,4,13,0.20
2013-1-27,47.1,43.0,39.2,46.6,38.4,32.5,98,84,65,29.43,28.98,22,7,22,0.08
2013-1-28,49.3,43.0,38.1,46.6,37.3,32.4,98,81,63,29.55,28.12,24,6,24,0.00
2013-1-29,54.3,48.7,44.8,53.1,45.0,37.9,98,87,65,29.49,29.24,22,5,22,0.00
2013-1-30,48.6,45.3,42.6,44.4,40.3,36.1,94,83,65,29.84,29.34,25,8,25,0.04
2013-1-31,47.3,44.6,41.7,42.8,38.9,36.5,95,81,74,29.81,29.52,20,7,20,0.12
2013-2-1,46.2,42.1,37.6,42.4,37.9,31.3,98,85,75,29.73,29.37,11,4,11,0.12
2013-2-2,40.5,36.3,33.1,31.8,29.9,26.1,87,78,58,30.21,29.73,11,2,11,0.00
2013-2-3,47.8,43.1,34.0,47.3,41.9,30.6,98,95,86,30.18,29.75,17,5,17,0.00
2013-2-4,48.0,44.0,36.0,47.5,38.9,33.3,98,83,68,29.81,29.55,27,10,27,0.28
2013-2-5,43.3,38.9,34.9,41.5,35.1,29.5,98,86,74,29.55,29.22,20,9,20,0.16
2013-2-6,42.1,39.5,36.7,38.5,30.7,24.8,87,71,54,30.12,29.40,17,6,17,0.04
2013-2-7,40.5,37.5,34.5,39.2,35.0,30.2,98,91,79,30.14,29.94,7,1,7,0.04
2013-2-8,43.3,40.2,37.4,40.5,36.9,34.5,98,88,75,30.17,30.06,11,3,11,0.00
2013-2-9,40.5,38.7,36.9,39.4,38.0,36.3,98,97,86,30.14,29.76,11,3,11,0.12
2013-2-10,39.4,37.7,35.4,38.8,37.1,32.7,98,98,89,29.76,29.22,17,6,17,0.00
2013-2-11,38.8,36.2,34.5,32.7,28.4,24.1,91,74,58,29.82,29.28,17,5,17,0.00
2013-2-12,37.9,35.7,33.3,28.6,26.8,24.6,79,70,59,30.09,29.82,10,3,10,0.00
2013-2-13,39.9,34.8,32.7,39.4,31.6,24.8,98,89,70,30.09,25.61,17,6,17,0.04
2013-2-14,46.9,43.5,39.9,45.9,42.3,39.4,98,96,90,29.91,29.64,17,5,17,0.16
2013-2-15,48.0,43.4,37.9,44.6,41.5,36.0,98,93,84,30.14,29.90,13,4,13,0.00
2013-2-16,48.4,41.3,35.4,40.8,37.8,34.9,98,88,74,30.15,30.11,9,3,9,0.00
2013-2-17,46.8,40.1,35.1,38.3,34.2,28.9,98,81,50,30.12,30.02,12,4,12,0.00
2013-2-18,44.6,39.2,35.4,34.7,33.5,31.6,92,80,62,30.09,30.05,15,4,15,0.00
2013-2-19,44.2,37.9,32.4,37.9,34.5,31.8,98,88,72,30.09,30.02,9,2,9,0.00
2013-2-20,39.4,36.2,32.5,37.2,31.2,24.6,98,83,67,30.27,30.09,10,5,15,0.00
2013-2-21,38.7,34.7,32.0,25.0,22.0,18.7,74,60,50,30.27,30.20,15,6,15,0.00
2013-2-22,37.0,34.8,33.3,25.7,21.9,19.4,68,59,55,30.21,30.17,11,2,11,0.00
2013-2-23,38.7,35.4,33.3,34.2,29.7,24.6,93,80,69,30.30,30.15,7,1,7,0.00
2013-2-24,40.3,36.2,33.1,32.0,28.6,26.4,84,74,61,30.39,30.27,8,2,8,0.00
2013-2-25,43.5,38.9,32.7,35.8,32.6,28.2,86,78,71,30.50,25.55,10,3,10,0.00
2013-2-26,43.3,40.5,38.8,36.0,33.9,31.5,82,77,72,30.62,28.00,9,2,9,0.00
2013-2-27,47.3,40.0,35.6,36.3,32.3,30.4,81,74,52,30.62,30.53,6,1,6,0.00
2013-2-28,46.6,39.8,33.6,38.7,31.7,24.1,88,73,45,30.56,30.41,7,1,7,0.00
2013-3-1,46.2,42.9,37.0,38.7,32.2,28.2,86,67,50,30.47,30.41,10,1,10,0.00
2013-3-2,46.6,40.0,32.4,40.6,34.0,26.6,95,79,67,30.44,30.23,8,1,8,0.00
2013-3-3,47.8,41.8,34.9,37.2,35.2,32.9,97,78,63,30.27,30.05,10,2,10,0.00
2013-3-4,46.6,40.9,36.3,34.7,31.8,29.5,92,71,52,30.05,28.06,14,4,14,0.00
2013-3-5,49.6,41.4,33.3,40.1,35.6,30.0,89,80,69,29.73,29.54,9,2,9,0.00
2013-3-6,48.2,43.0,39.6,40.8,38.7,36.1,93,85,71,29.58,29.51,13,4,13,0.00
2013-3-7,50.2,45.0,42.1,47.7,42.0,39.9,98,90,72,29.52,29.36,13,4,13,0.00
2013-3-8,47.5,43.7,41.9,43.2,41.7,39.4,98,93,82,29.55,29.37,15,5,15,0.00
2013-3-9,42.4,40.4,37.0,39.9,38.1,35.8,97,91,85,29.73,29.55,10,2,10,0.04
2013-3-10,39.7,35.5,28.8,36.5,25.0,14.5,98,68,42,29.91,29.73,17,4,18,0.04
2013-3-11,35.2,29.9,26.1,26.8,19.0,13.3,89,64,43,30.00,29.91,15,4,15,0.00
2013-3-12,41.2,33.6,25.0,34.7,23.7,17.1,85,67,50,30.00,29.85,12,3,12,0.00
2013-3-13,44.1,38.5,34.5,34.7,28.2,22.5,85,67,45,29.97,29.82,9,2,10,0.00
2013-3-14,44.6,38.1,29.5,39.2,31.5,23.2,96,78,60,30.00,29.73,11,2,11,0.08
2013-3-15,47.8,42.3,38.3,45.5,40.3,37.6,98,93,77,29.73,29.37,9,2,9,0.08
2013-3-16,46.0,41.7,39.2,41.9,39.0,36.1,98,90,74,29.37,29.19,8,2,8,0.00
2013-3-17,43.3,40.1,36.7,40.6,37.6,34.3,98,91,83,29.19,29.13,9,2,9,0.08
2013-3-18,46.0,38.5,32.7,36.9,32.9,29.7,96,81,65,29.37,29.16,12,2,12,0.08
2013-3-19,44.8,38.9,32.2,38.8,32.8,28.6,88,79,68,31.31,29.37,10,2,10,0.08
2013-3-20,43.5,38.8,34.0,33.8,31.8,29.1,87,76,64,32.86,25.52,11,4,11,0.08
2013-3-21,43.3,37.2,31.8,33.6,27.4,25.0,94,69,51,25.53,25.52,21,7,21,0.08
2013-3-22,35.4,33.7,32.9,33.8,32.7,30.6,98,96,84,25.52,25.52,24,9,24,0.08
2013-3-23,35.6,33.4,32.2,33.1,29.5,24.1,98,86,70,25.53,25.52,21,1,21,0.08
2013-3-24,37.6,34.0,31.5,24.4,21.4,19.4,71,60,49,25.53,25.52,20,8,20,0.08
2013-3-25,39.7,35.6,33.3,25.0,21.5,18.9,69,56,47,25.52,25.52,21,6,21,0.08
2013-3-26,39.4,35.1,33.3,26.8,23.1,19.9,73,61,48,25.52,25.52,15,4,15,0.08
2013-3-27,40.3,34.7,30.4,29.8,24.6,20.8,81,67,49,25.53,25.52,13,3,13,0.08
2013-3-28,41.4,35.2,28.6,28.6,22.9,18.3,85,62,44,25.53,25.52,15,3,15,0.08
2013-3-29,42.3,35.5,27.9,23.2,20.4,17.8,76,55,40,25.53,25.52,13,3,13,0.08
2013-3-30,44.8,36.0,28.6,26.1,21.7,18.9,74,57,38,25.53,25.52,11,3,11,0.08
2013-3-31,44.8,37.1,29.3,25.0,21.8,18.5,77,55,38,25.53,25.52,15,4,15,0.08
2013-4-1,43.2,36.7,31.3,31.1,23.2,19.0,85,59,41,25.53,25.52,20,5,20,0.08
2013-4-2,46.8,38.2,30.4,31.3,23.3,20.1,79,56,39,25.53,25.52,15,2,15,0.08
2013-4-3,47.7,39.6,29.7,29.8,24.5,20.5,87,57,35,25.53,25.52,13,3,13,0.08
2013-4-4,46.9,38.9,31.6,30.0,24.2,17.4,84,58,32,25.53,25.52,15,3,15,0.08
2013-4-5,46.0,40.0,32.5,32.0,27.2,23.0,85,61,41,25.53,25.52,13,3,13,0.08
2013-4-6,46.4,40.2,32.9,29.8,26.2,23.0,75,58,47,25.52,25.52,8,1,8,0.08
2013-4-7,51.8,42.2,32.2,31.5,27.7,23.5,83,59,37,25.52,25.52,13,2,14,0.08
2013-4-8,49.3,41.3,36.1,29.3,26.3,22.3,72,56,39,25.52,25.52,38,6,93,0.08
2013-4-9,51.3,42.0,34.3,31.5,28.9,26.2,80,61,38,25.52,25.52,17,5,17,0.08
2013-4-10,50.5,43.3,33.8,35.6,31.7,27.7,79,64,53,25.52,25.52,12,3,12,0.08
2013-4-11,45.5,42.5,39.6,41.2,36.9,32.9,95,80,66,25.52,25.52,15,5,15,0.08
2013-4-12,54.5,46.6,41.5,44.8,41.7,40.1,97,84,66,25.52,25.52,10,3,11,0.08
2013-4-13,56.3,48.2,39.2,52.9,43.2,36.1,98,85,48,25.52,25.52,15,4,15,0.08
2013-4-14,62.2,56.5,53.6,54.5,49.5,41.4,97,79,53,0.00,40.00,14,4,14,0.08
2013-4-15,62.1,56.5,50.9,49.3,43.5,38.3,81,63,42,0.00,40.00,15,4,15,0.08
2013-4-16,59.2,53.8,47.1,48.0,41.4,35.1,93,64,45,0.00,40.00,17,5,17,0.08
2013-4-17,60.6,52.8,45.3,53.4,44.3,37.4,98,74,54,0.00,40.00,17,5,17,0.08
2013-4-18,55.9,50.7,46.6,44.8,40.3,36.7,91,69,50,0.00,40.00,25,9,25,0.08
2013-4-19,52.5,47.1,40.6,43.9,38.4,34.3,94,73,52,0.00,40.00,15,5,15,0.08
2013-4-20,61.2,48.6,37.2,38.7,34.8,28.8,88,62,37,0.00,40.00,9,2,9,0.08
2013-4-21,53.1,47.6,41.7,46.8,38.6,27.9,89,71,48,0.00,40.00,8,2,9,0.08
2013-4-22,58.3,50.7,41.9,51.1,44.4,39.4,92,80,60,0.00,40.00,13,4,13,0.08
2013-4-23,58.5,52.7,45.9,47.1,45.1,40.8,97,76,55,0.00,40.00,15,6,15,0.08
2013-4-24,62.2,52.6,47.3,51.1,46.6,42.3,94,80,66,0.00,40.00,15,3,15,0.08
2013-4-25,53.2,49.5,45.0,50.4,44.8,41.0,96,84,74,0.00,40.00,11,2,11,0.04
2013-4-26,51.4,45.9,39.7,44.1,38.8,32.5,97,77,51,0.00,40.00,16,4,16,0.00
2013-4-27,53.1,44.7,36.1,39.0,33.2,30.0,87,66,42,0.00,40.00,11,3,14,0.00
2013-4-28,53.1,46.9,40.1,49.1,39.8,33.1,95,77,58,0.00,40.00,15,4,15,0.00
2013-4-29,54.1,47.4,42.3,40.8,39.4,37.6,88,74,58,0.00,40.00,17,7,17,0.00
2013-4-30,55.0,48.3,41.4,43.0,37.2,33.3,87,67,47,0.00,40.00,9,3,9,0.00
2013-5-1,58.8,50.2,40.6,42.8,37.7,32.9,80,63,40,0.00,40.00,12,3,12,0.00
2013-5-2,59.7,51.4,39.0,41.5,35.0,28.0,84,56,30,0.00,40.00,8,2,8,0.00
2013-5-3,61.0,53.3,46.2,46.4,41.9,35.2,85,66,52,0.00,40.00,15,3,15,0.00
2013-5-4,57.0,52.7,47.8,48.7,42.9,36.0,93,70,48,0.00,40.00,17,5,17,0.00
2013-5-5,65.1,55.6,46.8,51.6,46.3,40.5,94,72,51,0.00,40.00,12,4,12,0.00
2013-5-6,63.7,53.7,45.5,45.3,42.2,40.6,86,67,44,0.00,40.00,6,1,8,0.00
2013-5-12,55.4,52.4,49.5,52.9,49.8,41.7,98,92,66,29.87,29.72,17,-14,17,0.00
2013-5-13,55.9,49.3,45.1,48.4,38.8,34.5,97,68,50,29.75,29.66,18,7,18,0.00
2013-5-14,56.8,49.8,44.4,42.6,37.8,35.1,87,64,45,29.66,29.31,14,4,14,0.00
2013-5-15,53.2,47.2,43.2,45.0,42.4,39.2,98,84,64,29.49,28.23,17,5,17,0.00
2013-5-16,58.3,50.2,43.5,45.3,40.4,35.2,94,71,46,29.57,29.46,11,2,11,0.00
2013-5-17,57.2,51.3,46.9,46.9,43.0,37.4,94,74,48,29.81,29.57,9,2,9,0.00
2013-5-18,50.4,49.1,48.0,49.3,48.0,46.0,98,96,89,29.81,29.66,12,3,12,0.00
2013-5-19,61.0,53.8,46.4,51.6,48.6,45.3,98,84,59,29.96,29.78,11,2,11,0.00
2013-5-20,60.6,55.1,51.8,54.1,51.9,50.4,96,89,77,29.99,29.90,11,4,11,0.00
2013-5-21,56.8,52.9,48.9,53.4,49.0,44.2,98,87,69,30.08,29.96,9,4,13,0.00
2013-5-22,56.3,51.6,44.8,47.1,41.2,32.5,92,69,47,30.11,30.02,20,7,20,0.00
2013-5-23,53.1,47.2,42.8,40.5,35.6,31.6,84,65,46,30.02,29.87,20,7,20,0.00
2013-5-24,57.9,49.4,44.8,38.8,35.4,32.7,77,59,44,30.14,29.81,19,6,19,0.00
2013-5-25,66.2,51.9,41.5,41.5,37.1,30.6,87,60,36,30.19,30.14,11,2,11,0.00
2013-5-26,64.8,54.2,44.1,47.8,43.2,36.7,88,68,47,30.14,29.87,11,2,11,0.00
2013-5-27,62.4,51.3,43.7,48.4,43.4,38.1,91,76,45,29.87,29.48,14,3,14,0.00
2013-5-28,54.1,51.1,47.1,51.8,47.2,39.4,98,87,62,29.57,25.55,11,3,12,0.00
2013-5-29,61.3,55.0,46.6,54.0,48.5,40.5,92,79,64,29.84,29.57,11,3,12,0.00
2013-5-30,63.1,57.1,53.4,52.9,51.0,48.2,95,81,65,30.05,29.81,11,3,11,0.00
2013-5-31,61.9,56.3,49.8,54.3,48.6,41.5,98,76,63,30.17,30.05,13,4,13,0.00
2013-6-1,64.4,54.4,47.5,48.7,44.1,39.9,85,69,47,30.32,30.17,15,5,15,0.00
2013-6-2,60.1,55.2,48.0,47.8,43.7,40.6,88,66,50,30.44,30.32,11,3,11,0.00
2013-6-3,71.8,59.6,48.2,52.9,46.8,43.0,92,65,42,30.49,30.40,9,2,9,0.00
2013-6-4,72.9,62.4,50.7,50.7,43.9,39.0,83,53,33,30.43,30.25,11,3,11,0.00
2013-6-5,67.6,60.5,51.8,50.4,47.5,45.0,88,64,46,30.25,30.10,11,2,11,0.00
2013-6-6,68.4,60.4,51.1,55.2,48.9,44.8,88,67,45,30.22,30.14,11,3,11,0.00
2013-6-7,73.4,64.0,51.6,53.2,47.3,42.4,79,56,41,30.26,30.19,8,3,9,0.00
2013-6-8,70.0,62.7,52.2,47.5,44.9,41.2,76,54,37,30.25,30.07,9,3,9,0.00
2013-6-9,68.5,60.9,49.5,48.4,46.6,44.4,87,61,44,30.08,29.92,9,2,9,0.00
2013-6-10,64.9,58.5,49.5,48.0,44.7,42.3,83,61,45,29.96,29.86,11,4,11,0.00
2013-6-11,66.9,57.9,49.1,56.3,50.0,42.6,91,75,61,29.87,29.71,13,4,13,0.00
2013-6-12,65.8,60.9,57.2,59.2,56.4,49.5,97,86,66,29.72,29.57,9,2,9,0.00
2013-6-13,60.1,57.0,54.3,57.0,52.3,47.3,97,84,67,29.87,29.54,15,3,15,0.00
2013-6-14,67.3,57.1,51.3,58.5,52.0,47.1,93,83,60,29.90,29.57,13,2,13,0.00
2013-6-15,61.9,56.8,50.2,51.3,47.8,43.0,93,73,55,29.66,29.51,15,3,15,0.00
2013-6-16,65.1,59.3,53.6,53.1,49.5,45.3,95,71,50,29.93,29.66,11,2,11,0.00
2013-6-17,69.1,62.2,57.2,52.3,49.7,46.4,83,65,46,29.99,29.93,10,2,10,0.00
2013-6-18,72.1,63.4,53.1,55.0,49.5,45.7,78,61,46,29.99,29.89,8,2,8,0.00
2013-6-19,71.2,61.5,54.0,58.3,50.6,45.5,88,68,52,30.02,29.92,11,3,11,0.00
2013-6-20,70.7,59.9,49.8,59.2,52.6,44.8,94,78,46,29.99,29.74,9,1,9,0.00
2013-6-21,66.4,62.0,57.9,59.5,55.0,47.1,98,79,62,29.80,29.69,10,3,10,0.00
2013-6-22,63.3,57.4,53.4,58.1,52.7,49.6,97,85,66,29.69,29.42,11,3,11,0.00
2013-6-23,59.4,55.2,52.9,54.7,51.4,45.7,98,88,74,29.99,29.48,20,8,20,0.00
2013-6-24,52.9,52.4,52.2,46.6,45.8,45.0,80,78,76,30.08,29.99,15,7,17,0.00
2013-6-28,59.5,57.2,52.7,58.8,55.9,46.4,98,95,79,30.11,30.01,13,-11,13,0.00
2013-6-29,64.6,58.5,52.3,58.5,50.0,44.4,96,74,53,30.19,30.08,15,3,15,0.00
2013-6-30,66.9,61.0,56.5,58.6,54.4,51.4,96,80,63,30.16,29.95,11,4,11,0.00
2013-7-1,62.1,57.7,54.3,51.4,47.0,42.1,84,68,50,29.96,29.93,11,4,11,0.00
2013-7-2,58.6,56.5,53.1,57.0,52.2,47.3,98,86,71,29.93,29.48,13,3,13,0.00
2013-7-3,64.0,59.4,56.1,57.4,54.9,51.8,98,86,69,29.90,29.48,11,3,12,0.00
2013-7-4,69.1,62.5,56.5,60.3,53.7,48.9,93,74,54,30.22,29.84,17,4,17,0.00
2013-7-5,70.5,62.8,54.7,54.5,51.3,46.9,82,67,48,30.37,30.22,8,2,8,0.00
2013-7-6,75.6,63.7,55.6,59.5,53.7,50.5,92,71,48,30.43,30.33,10,2,10,0.00
2013-7-7,77.4,66.5,56.1,61.2,56.4,51.8,88,71,46,30.52,30.43,10,2,10,0.00
2013-7-8,77.7,69.5,59.7,60.1,55.7,48.0,93,64,36,30.55,30.45,8,2,12,0.00
2013-7-9,78.4,69.0,59.2,61.2,56.8,53.4,90,67,48,30.46,30.28,11,2,11,0.00
2013-7-10,77.0,69.4,60.8,60.8,58.3,52.5,93,69,53,30.31,30.27,11,3,11,0.00
2013-7-11,71.8,65.1,55.4,58.3,52.6,46.4,82,65,45,30.31,30.22,8,2,9,0.00
2013-7-12,75.7,68.7,58.8,61.3,56.9,49.6,92,68,45,30.25,30.22,9,2,9,0.00
2013-7-13,76.5,68.8,60.6,61.2,57.8,52.9,91,70,46,30.28,30.22,11,2,11,0.00
2013-7-14,69.3,64.0,58.1,58.1,54.5,47.3,91,73,48,30.25,30.19,11,2,11,0.00
2013-7-15,72.9,64.8,56.3,60.1,56.7,54.0,97,76,60,30.22,30.19,10,2,10,0.00
2013-7-16,76.3,66.1,56.8,61.3,55.6,52.5,92,70,52,30.22,30.19,9,2,10,0.00
2013-7-17,77.2,67.7,58.1,62.8,56.3,51.1,93,69,45,30.31,30.22,12,2,12,0.00
2013-7-18,78.3,70.6,59.9,62.2,58.2,55.6,90,67,47,30.31,30.27,9,1,9,0.00
2013-7-19,83.5,74.7,63.5,74.7,61.0,55.4,98,64,41,30.28,30.18,11,2,11,0.00
2013-7-20,75.7,69.5,62.6,60.8,57.9,55.4,87,68,51,30.25,30.16,12,3,12,0.00
2013-7-21,70.5,65.8,61.7,57.6,55.5,52.3,79,70,56,30.19,30.04,11,4,13,0.00
2013-7-22,79.3,70.4,58.8,64.6,60.2,55.6,91,71,55,30.04,29.88,11,3,11,0.00
2013-7-23,75.2,68.7,64.8,67.5,63.7,60.8,98,84,69,29.89,29.83,8,2,8,0.00
2013-7-24,74.3,68.8,63.1,62.2,58.9,54.9,94,72,53,29.86,29.83,6,1,6,0.00
2013-7-25,75.0,68.4,62.1,64.8,58.6,48.9,98,73,48,29.83,29.77,10,2,10,0.00
2013-7-26,75.7,67.5,58.8,59.0,55.0,52.2,88,65,51,29.86,29.83,9,2,9,0.00
2013-7-27,75.6,68.4,59.4,62.8,57.1,52.2,92,69,45,29.83,29.56,8,1,8,0.00
2013-7-28,71.4,64.3,59.7,62.8,59.8,55.8,98,86,60,29.62,29.51,11,2,11,0.00
2013-7-29,72.7,65.9,60.8,64.0,58.1,51.3,98,77,51,29.81,29.59,11,3,11,0.00
2013-7-30,75.9,65.8,58.8,59.5,54.3,50.2,89,68,48,29.83,29.77,9,2,9,0.00
2013-7-31,67.8,62.9,59.4,64.8,59.7,55.2,98,89,71,29.89,29.74,9,2,9,0.00
2013-8-1,78.4,68.9,62.4,66.0,62.7,60.3,98,82,64,29.77,29.56,9,3,11,0.00
2013-8-2,73.6,68.4,62.6,64.4,58.0,51.8,95,71,48,29.68,29.59,9,3,9,0.00
2013-8-3,72.1,65.4,60.1,54.7,51.3,47.7,80,61,45,29.95,29.65,11,3,11,0.00
2013-8-4,70.9,64.2,58.8,64.2,58.0,51.8,97,81,56,29.95,29.83,76,3,76,0.00
2013-8-5,65.7,61.8,57.9,65.1,59.0,49.8,98,91,71,29.90,29.62,11,4,13,0.00
2013-8-6,67.8,61.8,56.1,52.3,47.5,43.5,80,61,43,29.98,29.87,8,2,8,0.00
2013-8-7,70.3,62.6,53.8,52.5,48.0,44.8,78,60,41,30.01,29.90,8,2,8,0.00
2013-8-8,72.7,64.3,54.7,57.4,53.0,50.0,86,68,48,30.05,29.92,8,1,8,0.00
2013-8-9,66.7,62.6,59.5,59.9,54.7,49.1,96,76,56,30.13,29.89,15,4,15,0.00
2013-8-10,67.3,62.0,58.3,53.8,50.3,43.7,81,67,45,30.13,30.01,10,2,10,0.00
2013-8-11,65.1,61.4,57.6,58.8,51.7,45.3,95,72,50,30.01,29.95,13,4,17,0.00
2013-8-12,64.4,59.9,56.8,54.7,50.2,46.4,88,71,57,30.04,29.90,15,5,15,0.00
2013-8-13,64.6,59.3,56.1,59.2,52.9,47.8,97,80,68,30.17,30.04,11,3,11,0.00
2013-8-14,70.2,63.6,56.1,62.6,56.9,52.3,94,80,55,30.17,29.98,11,2,11,0.00
2013-8-15,74.1,67.1,62.6,66.0,62.2,59.0,98,85,63,29.98,29.80,38,2,38,0.00
2013-8-16,66.9,63.9,60.4,63.1,56.5,50.5,98,78,58,29.92,29.77,10,3,10,0.00
2013-8-17,65.7,61.7,57.9,63.0,57.6,52.7,98,87,73,29.89,29.48,12,3,12,0.00
2013-8-18,65.8,61.3,56.8,58.6,51.0,44.4,93,70,47,29.83,29.57,13,4,13,0.00
2013-8-19,67.1,61.7,56.5,53.6,51.5,46.9,85,70,49,30.22,29.83,12,2,12,0.00
2013-8-20,70.0,63.4,57.7,57.7,53.7,51.1,91,72,53,30.28,30.19,8,1,8,0.00
2013-8-21,70.3,63.9,58.3,60.6,57.3,52.3,91,79,68,30.19,30.07,9,2,9,0.00
2013-8-22,73.0,66.5,61.0,62.4,58.8,53.4,92,78,51,30.07,29.95,6,1,6,0.00
2013-8-23,70.7,65.5,60.1,61.5,59.7,57.2,98,82,66,29.95,29.83,10,2,10,0.00
2013-8-24,65.8,61.5,55.9,61.2,54.7,47.3,97,79,53,29.93,29.86,14,3,14,0.00
2013-8-25,70.2,62.5,55.2,60.4,55.8,48.7,91,79,68,30.10,29.90,10,2,10,0.00
2013-8-26,72.9,65.1,57.2,59.0,55.9,48.0,94,74,44,30.13,30.07,9,1,9,0.00
2013-8-27,68.5,63.7,59.4,60.6,57.6,53.4,95,81,63,30.16,30.04,11,2,11,0.00
2013-8-28,65.7,61.5,56.5,58.6,51.9,46.2,92,72,54,30.19,30.13,8,2,8,0.00
2013-8-29,68.7,62.9,56.1,60.3,55.9,48.4,89,78,65,30.14,30.04,9,2,10,0.00
2013-8-30,72.3,65.2,58.8,61.2,58.2,45.3,94,79,59,30.13,29.95,15,2,15,0.00
2013-8-31,63.0,59.3,54.5,49.8,42.9,37.9,74,55,45,30.37,30.13,15,5,15,0.00
2013-9-1,60.8,58.4,55.4,53.2,48.1,44.4,82,69,61,30.38,30.28,15,5,15,0.00
2013-9-2,66.9,62.0,57.9,60.3,56.4,50.7,94,82,72,30.31,30.22,14,5,14,0.00
2013-9-3,71.6,64.9,60.1,61.5,59.0,56.3,97,82,61,30.31,30.19,7,2,7,0.00
2013-9-4,73.4,63.8,55.2,59.5,54.9,49.5,98,75,46,30.19,29.92,9,1,9,0.00
2013-9-5,66.2,61.3,57.6,59.4,52.2,43.7,91,72,57,29.92,29.81,11,2,11,0.00
2013-9-6,58.6,55.1,50.7,54.5,50.4,45.5,98,85,63,29.81,29.69,8,2,8,0.00
2013-9-7,59.0,53.2,48.4,51.4,47.5,41.7,98,82,60,29.93,29.66,10,2,10,0.00
2013-9-8,58.3,52.2,45.1,52.3,47.0,42.4,96,83,63,29.96,29.90,8,2,8,0.00
2013-9-9,59.9,53.0,45.3,55.2,49.2,44.8,98,87,64,30.11,29.93,15,2,15,0.00
2013-9-10,61.7,56.0,50.2,53.2,48.8,43.0,93,78,51,30.19,30.08,17,4,17,0.00
2013-9-11,58.1,56.7,54.3,57.6,54.5,52.0,98,92,84,30.19,30.04,9,2,9,0.00
2013-9-12,66.9,60.7,56.7,61.7,58.5,56.1,98,93,74,30.07,29.95,9,1,9,0.00
2013-9-13,60.6,56.5,53.4,59.9,49.5,43.5,98,78,55,30.04,29.96,11,3,11,0.00
2013-9-14,59.2,54.5,50.7,49.5,45.5,40.3,90,73,50,30.05,29.93,11,2,11,0.00
2013-9-15,60.4,52.9,48.6,59.9,47.0,36.3,98,81,52,30.02,29.36,21,4,21,0.00
2013-9-16,55.9,51.8,48.9,45.1,41.1,38.3,79,67,55,29.51,29.42,20,7,20,0.00
2013-9-17,53.2,51.4,49.3,48.9,45.0,40.6,97,79,65,29.51,29.33,17,3,17,0.00
2013-9-18,57.9,53.0,48.4,49.1,46.0,42.1,97,78,61,29.78,25.52,15,4,15,0.00
2013-9-19,60.4,55.0,50.2,57.6,48.0,41.4,98,78,66,29.81,29.57,17,4,17,0.00
2013-9-20,59.7,56.4,52.0,50.4,46.3,43.0,86,69,55,30.11,29.81,13,3,13,0.00
2013-9-21,66.4,58.9,50.7,59.5,53.0,43.3,92,81,73,30.19,30.05,8,2,8,0.00
2013-9-22,67.5,62.4,57.6,59.2,56.8,54.0,96,83,66,30.31,30.19,10,1,10,0.00
2013-9-23,63.1,59.4,54.5,59.9,57.2,52.2,98,92,87,30.28,30.04,8,1,8,0.00
2013-9-24,66.7,61.0,55.9,58.5,56.5,54.0,94,85,69,30.04,29.86,10,2,11,0.00
2013-9-25,64.4,60.1,56.7,60.8,57.9,50.9,98,93,81,29.87,29.77,9,0,9,0.00
2013-9-26,63.1,57.7,53.6,50.2,47.4,45.5,79,69,58,29.99,29.87,13,4,13,0.00
2013-9-27,64.8,59.6,56.1,51.4,48.9,45.9,81,68,51,29.96,29.84,13,4,13,0.00
2013-9-28,65.7,57.9,50.9,51.3,46.5,41.0,85,67,42,29.84,29.72,15,4,15,0.00
2013-9-29,63.9,56.7,52.0,50.0,46.8,43.2,91,71,47,29.78,29.71,13,4,13,0.00
2013-9-30,65.7,58.4,53.2,51.3,49.3,47.5,84,72,58,29.75,29.65,15,5,15,0.00
2013-10-1,61.5,57.2,52.2,53.6,48.2,45.0,82,72,60,29.75,29.69,15,6,15,0.00
2013-10-2,61.9,58.6,54.5,60.8,55.9,46.4,98,91,66,29.69,29.65,15,6,15,0.00
2013-10-3,64.9,61.8,59.9,61.7,60.5,59.0,98,95,82,29.69,29.42,13,4,13,0.00
2013-10-4,63.5,60.5,58.5,63.0,59.5,56.1,98,96,89,29.81,29.42,11,4,11,0.00
2013-10-5,61.7,57.9,52.9,58.3,52.7,48.9,98,83,65,30.11,29.81,7,2,7,0.00
2013-10-6,64.4,57.0,48.9,57.4,52.9,48.0,98,87,70,30.13,30.07,6,1,6,0.00
2013-10-7,65.8,61.8,59.4,60.8,56.7,52.3,98,84,67,30.10,30.04,8,1,8,0.00
2013-10-8,63.0,59.7,55.6,59.7,54.9,47.1,98,84,69,30.17,30.01,11,3,13,0.00
2013-10-9,57.2,53.6,48.2,50.4,42.8,33.4,84,67,48,30.17,29.99,20,6,20,0.00
2013-10-10,54.3,48.0,43.0,35.1,33.2,29.7,67,57,47,30.26,30.05,16,4,16,0.00
2013-10-11,57.6,51.0,44.1,47.8,42.7,35.1,86,74,64,30.26,30.17,13,4,13,0.00
2013-10-12,59.2,54.3,51.1,50.0,46.6,41.4,81,75,69,30.23,30.02,12,3,12,0.00
2013-10-13,53.8,52.3,49.6,48.0,45.2,41.9,84,77,68,30.02,29.78,10,3,10,0.00
2013-10-14,56.1,50.8,47.3,50.2,46.7,42.1,98,86,67,29.78,29.66,12,3,12,0.00
2013-10-15,57.6,51.6,47.5,51.3,48.2,45.1,98,89,72,29.84,29.63,7,2,7,0.00
2013-10-16,53.8,49.8,45.7,53.2,48.1,43.9,98,94,85,29.84,29.24,17,6,17,0.00
2013-10-17,59.4,54.6,51.1,55.4,52.2,49.1,98,92,78,29.78,29.48,12,3,12,0.00
2013-10-18,56.5,54.2,50.9,55.8,53.6,50.4,98,98,94,29.78,29.30,17,5,17,0.00
2013-10-19,62.6,56.6,51.8,59.4,55.3,51.3,98,95,81,29.30,28.20,17,4,17,0.00
2013-10-20,61.9,55.4,51.4,55.2,52.5,47.5,98,91,64,29.09,28.82,11,3,11,0.00
2013-10-21,61.9,56.2,50.7,61.0,55.5,50.2,98,98,95,29.00,28.40,15,3,15,0.00
2013-10-22,63.0,59.3,57.0,59.7,57.7,56.1,98,95,83,28.43,28.08,11,4,15,0.00
2013-10-23,57.6,54.0,49.1,56.5,48.8,37.8,98,83,58,29.10,28.05,17,5,17,0.00
2013-10-24,57.6,51.2,43.5,51.6,47.2,41.2,96,86,75,29.09,28.77,12,3,16,0.00
2013-10-25,62.1,56.4,53.6,59.4,54.6,50.9,98,94,76,28.77,28.23,15,4,16,0.00
2013-10-26,58.3,55.0,49.3,56.5,51.8,46.0,98,90,66,28.47,28.20,11,1,11,0.00
2013-10-27,58.3,53.0,48.7,50.9,47.9,44.2,98,84,65,28.29,27.66,17,4,17,0.00
2013-10-28,54.0,50.5,47.7,49.8,46.7,41.2,98,87,69,28.53,27.66,17,5,17,0.00
2013-10-29,51.6,49.4,47.3,48.0,43.1,37.6,96,79,65,29.18,28.05,15,6,15,0.00
2013-10-30,53.6,49.0,42.3,52.5,45.5,39.2,98,88,76,28.83,28.05,11,3,11,0.00
2013-10-31,55.0,50.6,46.8,52.0,47.1,45.0,98,88,74,28.23,27.69,9,1,9,0.00
2013-11-1,51.1,48.9,46.8,50.5,46.2,41.0,98,91,78,27.96,27.55,8,1,8,0.00
2013-11-2,52.3,47.1,42.8,50.7,44.8,41.4,98,92,72,27.67,26.83,21,5,21,0.00
2013-11-3,50.0,46.1,39.4,42.4,38.3,35.8,89,74,60,28.62,27.49,25,6,25,0.00
2013-11-4,48.9,42.6,37.9,44.4,39.2,35.8,95,88,74,28.32,27.04,11,2,11,0.00
2013-11-5,49.5,45.5,41.0,48.0,42.3,38.5,98,89,71,28.23,26.80,17,5,17,0.00
2013-11-6,50.7,48.2,46.6,48.6,45.3,38.8,98,90,70,27.94,25.61,13,3,14,0.00
2013-11-7,50.7,46.0,41.7,45.1,40.7,38.3,93,82,69,30.56,27.01,11,2,11,0.00
2013-11-8,46.9,44.0,41.4,45.0,42.2,39.4,96,93,90,28.65,27.10,13,1,13,0.00
2013-11-9,45.5,41.9,37.6,43.9,39.7,36.3,96,92,85,30.95,26.98,11,2,13,0.00
2013-11-10,47.8,41.9,38.7,40.1,38.0,34.3,97,87,70,31.30,25.55,9,2,9,0.00
2013-11-11,54.9,49.5,41.5,54.3,48.7,37.9,98,97,86,31.30,27.55,12,3,12,0.00
2013-11-12,52.0,48.6,45.5,50.4,43.8,39.2,98,84,64,31.30,28.26,13,4,13,0.00
2013-11-13,50.2,47.0,43.2,46.0,41.9,39.6,94,83,70,31.31,29.99,15,3,15,0.00
2013-11-14,50.2,46.2,41.4,45.3,37.7,33.4,86,72,61,31.30,25.55,22,7,22,0.00
2013-11-15,50.2,45.6,39.2,48.0,41.8,34.3,94,86,75,31.31,29.91,8,2,8,0.00
2013-11-16,52.5,50.3,48.4,50.2,45.7,42.8,98,84,72,31.30,29.39,10,4,11,0.00
2013-11-17,52.7,50.6,49.3,52.2,49.4,46.8,98,95,90,31.30,31.30,8,2,8,0.00
2013-11-18,49.5,46.5,41.4,47.5,42.7,32.9,98,87,67,31.31,31.30,13,3,13,0.00
2013-11-19,42.1,38.6,35.4,36.0,31.3,25.2,88,75,56,31.31,31.01,11,2,11,0.00
2013-11-20,46.4,43.7,39.7,45.1,36.0,29.7,98,75,59,31.31,28.09,20,7,20,0.00
2013-11-21,45.9,42.3,39.9,39.4,35.5,31.1,83,77,62,31.31,27.67,17,4,17,0.00
2013-11-22,43.3,40.0,36.9,36.3,34.5,32.2,87,81,71,31.31,31.31,7,1,7,0.00
2013-11-23,42.6,39.1,34.5,35.1,32.1,27.3,89,76,66,31.31,31.31,6,1,6,0.00
2013-11-24,46.0,42.2,38.3,38.7,34.9,30.6,82,75,67,31.31,31.30,7,1,7,0.00
2013-11-25,41.9,38.5,34.7,36.5,31.6,28.0,86,76,65,31.31,31.31,5,0,5,0.00
2013-11-26,48.7,44.5,39.4,48.2,40.9,34.5,98,87,76,31.31,31.30,11,3,11,0.00
2013-11-27,51.3,49.4,46.9,49.3,48.0,45.5,98,95,90,31.30,31.30,12,5,12,0.00
2013-11-28,50.9,48.7,47.3,50.4,45.1,39.7,98,88,73,31.30,31.30,8,1,8,0.00
2013-11-29,48.7,46.9,44.6,47.5,41.9,35.4,98,83,69,31.30,31.30,19,8,19,0.00
2013-11-30,47.3,43.7,38.3,46.0,38.3,33.8,97,82,70,31.31,31.30,26,3,26,0.00
2013-12-1,50.4,48.6,47.3,49.5,46.2,41.4,98,92,79,31.30,31.30,10,2,10,0.00
2013-12-2,48.0,46.7,45.9,44.6,41.3,37.2,91,82,71,31.30,31.30,5,0,5,0.00
2013-12-3,48.9,46.4,45.1,44.6,40.2,37.0,87,79,72,31.30,31.30,7,1,7,0.00
2013-12-4,48.7,44.5,42.1,47.8,37.6,34.0,98,77,64,31.31,31.30,13,5,13,0.00
2013-12-5,48.2,43.5,37.6,47.5,36.6,29.1,98,77,55,31.31,29.04,27,10,27,0.00
2013-12-6,46.4,42.1,38.5,45.9,37.9,32.9,98,85,70,31.31,31.30,15,4,15,0.00
2013-12-7,48.4,46.5,44.2,46.0,44.8,43.3,98,94,87,31.30,31.30,13,5,13,0.00
2013-12-8,52.9,49.7,46.2,48.0,45.6,42.6,93,86,75,31.30,31.30,13,4,13,0.00
2013-12-9,53.1,49.1,42.6,48.2,44.6,39.4,93,84,73,31.31,31.30,8,2,9,0.00
2013-12-10,48.2,44.7,41.5,43.3,41.3,39.9,95,88,83,31.31,31.30,9,4,9,0.00
2013-12-11,43.7,40.9,38.5,41.5,39.2,36.7,98,94,84,31.31,31.31,15,5,15,0.00
2013-12-12,50.9,45.7,38.1,50.4,44.4,36.3,98,95,85,31.31,31.30,11,4,11,0.00
2013-12-13,53.2,50.2,44.2,52.0,47.1,36.9,98,89,73,31.30,31.30,12,4,12,0.00
2013-12-14,53.2,47.2,39.4,48.2,40.7,33.3,93,79,53,31.31,31.30,15,4,15,0.00
2013-12-15,54.7,48.9,41.2,53.8,44.4,35.2,98,85,69,31.31,31.30,15,4,15,0.00
2013-12-16,53.6,46.9,42.1,51.4,43.7,36.9,97,89,77,31.31,31.30,14,2,14,0.00
2013-12-17,43.0,39.3,36.1,39.4,36.8,33.3,98,91,78,31.31,31.31,10,2,10,0.00
2013-12-18,51.3,44.5,36.9,49.8,42.6,36.3,98,93,86,31.31,31.30,22,6,22,0.00
2013-12-19,43.2,40.0,36.5,38.7,33.2,30.4,90,77,62,31.31,31.31,17,3,17,0.00
2013-12-20,50.7,44.9,38.5,49.8,39.8,33.8,98,83,75,31.31,31.30,17,4,17,0.00
2013-12-21,52.2,48.1,42.3,49.5,42.2,36.5,96,80,65,31.31,31.30,15,5,18,0.00
2013-12-22,44.8,41.7,37.2,40.3,33.9,28.9,93,74,61,31.31,30.95,17,6,19,0.00
2013-12-23,50.9,44.7,37.0,49.3,41.9,29.7,98,90,75,31.31,31.04,17,5,17,0.00
2013-12-24,49.6,42.4,39.4,49.1,33.5,28.8,98,71,56,31.31,31.30,17,4,17,0.00
2013-12-25,41.9,37.6,35.1,38.1,35.5,32.0,98,92,69,31.31,31.31,8,2,8,0.00
2013-12-26,42.3,37.4,32.9,40.5,36.0,32.4,98,95,82,31.31,31.31,22,3,22,0.00
2013-12-27,48.7,45.9,42.4,44.6,36.1,31.5,98,69,56,31.31,28.53,20,7,23,0.00
2013-12-28,45.9,43.2,41.4,39.7,36.8,32.5,87,78,64,31.31,29.87,12,5,13,0.00
2013-12-29,45.3,42.7,41.2,41.5,36.6,33.4,88,79,68,31.31,29.96,16,5,16,0.00
2013-12-30,50.7,45.6,39.9,49.1,43.3,36.7,96,91,84,31.31,31.30,20,6,20,0.00
2013-12-31,46.8,42.8,39.6,44.6,40.2,36.7,97,91,82,31.31,31.01,15,4,15,0.00
2014-1-1,50.2,44.3,39.0,49.6,43.1,37.2,98,95,88,31.31,27.78,18,5,18,0.00
2014-1-2,47.3,44.7,41.2,46.4,41.2,37.9,98,88,73,31.31,29.93,17,4,17,0.00